Wind_Speed
21 22 24 23 23 22 19 18 16 14 12 11 10 8 6 6 5 4 4 4 4 4 4 6 6 7 7 8 9 10 11 12 12 13 14 14 15 15 16 16 17 17 18 19
20 21 23 23 23 22 20 18 15 14 12 10 9 7 6 5 4 3 3 3 3 3 4 6 7 6 7 8 8 9 11 12 12 13 13 14 15 15 16 16 17 17 18 18
19 21 23 24 24 22 20 19 17 14 12 11 9 7 5 4 4 3 2 2 3 3 4 5 6 7 8 8 9 9 11 11 12 13 13 14 14 15 16 16 17 17 18 18
18 20 23 23 23 21 19 19 17 14 12 9 7 6 4 4 3 2 2 2 2 3 4 5 5 6 7 8 8 9 10 11 12 12 13 14 14 15 16 16 16 17 17 18
19 22 22 22 22 20 19 18 16 14 12 8 6 5 5 5 3 2 2 2 3 3 3 4 5 6 7 8 8 9 10 11 11 12 13 13 14 15 16 16 16 16 17 17
20 21 21 21 20 18 18 18 16 16 14 12 8 7 5 4 3 3 3 3 3 3 3 4 4 5 6 7 8 9 10 11 11 12 12 13 14 15 15 16 17 17 17 17
19 19 19 20 20 19 19 19 17 15 13 12 10 8 7 6 6 5 4 3 3 3 3 3 3 4 5 7 8 9 10 11 12 12 13 13 14 14 15 16 17 17 17 17
16 17 18 19 20 20 20 18 16 14 12 11 9 10 7 7 7 7 5 4 3 3 3 3 4 5 6 7 8 9 10 11 11 12 13 14 14 14 15 16 17 18 18 18
13 14 16 17 19 21 19 16 15 13 10 9 10 11 8 8 9 8 5 4 3 3 3 3 4 5 6 7 8 9 10 11 12 12 13 14 14 14 15 16 17 18 18 18
13 12 14 16 17 17 16 14 11 13 12 10 9 11 9 9 9 7 5 4 3 3 2 3 4 5 6 7 7 9 10 11 11 12 13 14 15 15 16 16 17 17 18 18
13 11 11 13 15 15 14 13 12 12 10 9 10 12 9 7 8 7 5 4 4 3 3 3 4 5 5 7 8 9 10 11 11 12 13 14 15 15 16 17 18 18 18 18
12 10 8 10 11 13 14 15 14 13 13 13 12 11 10 9 8 7 5 5 4 4 4 4 4 5 6 7 8 9 10 11 12 13 14 14 15 15 16 17 18 19 19 19
13 12 10 8 9 11 12 14 15 15 14 13 13 12 11 11 9 7 6 6 5 5 5 5 5 5 6 7 8 10 11 12 13 14 14 15 15 16 17 18 19 20 20 21
13 12 11 10 10 12 13 13 14 14 13 12 15 14 12 11 10 8 7 6 6 5 5 5 6 6 7 8 9 10 11 12 13 14 15 16 17 17 18 19 20 21 21 22
14 13 11 11 12 11 12 13 13 14 13 13 14 13 11 10 9 8 7 7 6 6 6 6 6 7 7 9 10 11 12 13 14 15 16 17 18 19 20 21 22 22 22 23
14 14 13 12 12 12 12 13 13 14 15 14 14 12 10 9 9 8 8 8 7 7 7 8 8 8 9 10 11 12 13 15 16 17 18 19 20 21 22 23 23 24 24 24
14 14 14 12 12 12 12 13 13 14 14 14 14 12 11 10 10 10 9 9 9 9 9 10 10 11 11 12 13 14 15 16 18 19 20 21 21 22 23 24 25 26 26 27
15 15 14 13 13 12 12 13 13 13 13 14 14 12 12 12 12 12 11 11 11 11 11 12 12 13 14 15 16 17 18 19 20 21 22 23 23 24 25 27 28 29 29 30
15 15 15 14 14 13 13 12 13 14 13 14 13 13 13 13 13 13 13 13 13 13 14 14 15 16 17 18 19 20 21 22 23 24 24 25 26 27 29 30 31 32 32 32
17 17 16 16 15 15 14 13 14 15 14 14 14 14 14 15 15 14 15 15 15 16 16 17 18 19 20 21 22 23 24 24 25 26 27 28 29 30 32 33 34 34 35 35
19 19 18 18 18 19 16 15 17 17 15 15 16 17 17 17 16 16 17 17 18 19 20 20 21 22 23 24 25 26 26 27 28 29 30 31 32 33 34 36 37 38 38 39
21 21 20 21 21 21 18 19 19 19 18 18 19 19 19 19 19 20 21 21 21 22 23 24 25 26 26 27 28 29 29 30 31 32 33 34 35 36 38 40 40 41 42 43
24 24 24 24 24 23 22 22 22 22 22 22 22 22 22 22 23 23 24 24 25 26 27 28 29 29 29 30 31 32 33 34 34 35 36 37 38 40 41 43 44 45 45 45
28 28 27 27 27 26 26 26 26 26 26 25 26 26 26 26 27 27 28 28 29 30 31 31 32 33 33 33 34 35 36 37 38 38 39 40 41 42 44 45 46 47 47 46
32 30 30 30 30 30 30 30 29 29 30 29 29 30 30 30 30 31 31 32 32 33 34 35 36 36 37 37 37 38 39 39 40 41 42 43 44 45 46 47 48 49 49 49
34 34 34 34 35 35 34 33 33 33 33 33 33 33 34 34 34 34 35 36 36 37 38 38 39 39 40 40 41 41 41 42 43 44 45 46 47 48 49 50 51 52 52 53
Wind_Direction
181 184 183 182 183 179 179 185 184 193 196 204 213 222 224 229 242 248 249 276 310 317 319 323 325 328 332 335 334 337 339 341 342 341 342 343 343 343 343 343 342 341 341 342
174 176 175 173 175 173 173 175 182 189 192 196 202 215 217 216 232 240 250 277 303 313 326 327 325 332 335 336 337 341 344 344 344 344 344 345 347 347 345 345 345 344 343 343
165 169 170 170 171 169 173 177 179 181 184 186 187 198 208 214 232 214 224 268 307 324 329 327 332 336 339 341 344 345 346 346 345 345 346 348 348 348 347 346 345 345 346 347
159 165 167 167 168 169 172 175 175 175 176 173 186 201 198 203 218 205 236 261 296 317 327 334 335 333 339 346 348 347 347 348 347 347 349 350 349 350 350 348 346 347 348 349
158 162 164 165 166 169 168 170 165 161 164 169 186 206 218 231 221 241 269 279 284 303 315 325 327 331 339 345 348 349 350 349 349 348 349 351 351 351 351 350 350 350 351 352
153 159 161 163 165 164 159 161 156 156 166 171 179 208 231 233 257 275 277 288 298 322 328 327 332 337 344 349 351 352 352 352 350 349 350 351 351 352 353 353 353 353 353 354
149 155 159 161 161 161 162 158 156 164 174 172 181 217 229 253 268 272 276 292 308 323 334 340 347 352 355 356 355 354 354 353 353 352 351 350 350 352 354 354 354 354 355 355
150 156 160 161 160 160 164 162 166 175 180 180 194 229 240 255 261 264 275 292 306 322 334 349 359 359 358 358 357 356 354 353 352 352 351 350 350 351 353 354 355 356 356 355
149 158 163 167 168 166 170 180 178 170 174 188 211 234 247 254 256 259 269 281 299 318 334 351 357 356 354 354 354 353 352 351 351 351 352 351 350 350 351 352 354 356 357 356
146 158 165 168 172 174 177 176 168 159 167 184 227 256 255 248 254 260 266 275 285 301 317 335 345 349 350 349 349 350 350 351 352 352 352 352 351 351 352 352 352 353 355 355
140 148 162 169 175 180 185 187 181 175 173 193 227 250 257 255 259 264 267 269 275 292 306 315 325 334 340 342 344 346 347 348 350 350 350 351 351 350 351 351 351 351 351 353
156 155 178 190 193 193 191 190 186 182 190 204 227 246 262 263 261 263 261 263 271 282 288 298 311 322 329 333 337 340 342 343 345 346 347 348 349 349 349 349 348 348 348 348
173 165 167 194 204 203 202 200 202 199 199 206 225 245 254 258 259 259 259 262 268 275 277 285 300 313 321 327 332 336 339 340 342 343 344 345 345 345 345 344 344 344 344 344
181 178 177 195 215 210 209 207 208 208 204 214 232 242 244 247 249 250 253 258 263 269 274 282 293 303 311 320 326 331 334 336 338 338 339 339 339 339 338 338 337 337 337 337
191 194 201 213 218 220 219 216 214 215 213 218 233 240 234 235 240 243 247 253 259 266 274 281 288 296 304 312 319 324 327 329 331 332 332 332 332 332 332 333 333 332 331 331
205 205 211 221 225 229 227 224 222 221 224 226 232 239 237 240 243 244 248 253 259 266 273 279 286 293 299 305 311 315 318 320 322 324 325 325 326 326 327 328 328 327 327 326
214 216 221 226 232 232 230 228 228 228 230 234 238 241 244 246 250 252 254 258 263 268 275 281 286 292 297 301 306 309 313 315 317 317 319 319 319 320 321 322 322 322 321 320
223 224 226 227 231 237 230 229 232 233 234 238 242 246 249 252 253 256 259 263 268 272 278 282 288 293 297 301 304 307 309 311 312 313 315 315 315 315 316 317 317 316 316 315
230 230 230 231 235 239 238 233 237 239 240 242 246 249 252 255 257 260 264 267 271 275 281 285 289 293 295 298 300 303 304 306 308 310 311 312 312 312 312 313 313 312 311 311
234 236 238 239 241 244 241 237 243 245 247 248 251 254 257 259 261 264 268 271 275 279 282 285 289 292 295 297 299 301 303 304 305 307 308 309 310 310 311 311 311 310 309 308
238 240 242 245 246 248 247 247 249 252 253 254 257 259 262 263 265 268 271 274 277 280 283 286 290 292 295 296 298 300 301 302 303 304 306 307 308 309 309 310 310 309 308 307
241 243 244 247 249 252 252 253 255 259 260 260 261 263 265 268 270 271 274 278 280 282 285 287 290 292 294 295 297 298 298 299 300 302 303 305 306 307 308 309 309 308 307 305
245 246 248 249 253 256 256 257 259 260 261 263 265 267 268 271 272 274 277 279 281 283 286 288 289 290 292 293 294 295 296 297 298 299 301 303 304 306 307 308 308 307 306 305
246 247 250 253 255 257 258 259 261 262 265 266 268 270 271 273 274 275 277 279 282 284 286 287 288 289 290 291 292 293 294 295 297 298 300 302 304 305 306 307 307 307 306 305
250 251 252 254 256 257 259 260 262 265 267 268 269 271 273 274 275 276 277 280 282 284 285 286 287 289 290 291 291 292 293 295 297 299 301 302 304 305 306 307 308 307 306 305
251 252 253 254 256 258 260 262 264 265 267 268 270 272 273 275 276 277 279 281 282 284 285 286 287 287 289 290 291 292 293 295 297 299 301 302 303 305 306 307 307 307 306 305
Height
5793 5799 5804 5810 5816 5821 5826 5831 5836 5840 5844 5847 5849 5851 5853 5855 5856 5857 5858 5858 5858 5859 5859 5858 5858 5857 5857 5856 5855 5855 5854 5853 5851 5850 5848 5847 5845 5843 5841 5839 5837 5834 5832 5829
5795 5800 5805 5810 5815 5820 5826 5831 5836 5840 5844 5846 5848 5850 5852 5854 5855 5856 5857 5857 5857 5858 5857 5857 5857 5856 5856 5855 5854 5854 5852 5851 5850 5848 5847 5846 5844 5842 5840 5838 5836 5833 5831 5828
5797 5802 5806 5811 5816 5821 5826 5831 5836 5840 5843 5846 5848 5850 5852 5853 5854 5855 5856 5856 5856 5857 5857 5856 5856 5855 5855 5854 5853 5852 5851 5850 5849 5847 5846 5844 5843 5841 5839 5837 5835 5832 5830 5827
5798 5803 5807 5812 5817 5822 5827 5832 5836 5840 5843 5846 5849 5850 5851 5853 5854 5855 5856 5856 5856 5856 5856 5856 5855 5855 5854 5853 5852 5851 5850 5849 5848 5846 5845 5843 5842 5840 5838 5836 5834 5831 5829 5826
5801 5805 5810 5814 5819 5823 5827 5832 5836 5840 5844 5847 5848 5850 5852 5852 5854 5855 5855 5855 5856 5856 5855 5855 5854 5854 5853 5853 5851 5850 5849 5848 5847 5845 5844 5843 5841 5839 5837 5835 5833 5830 5828 5825
5804 5808 5812 5816 5821 5825 5829 5834 5838 5841 5844 5847 5849 5850 5851 5851 5853 5854 5854 5854 5854 5854 5854 5854 5854 5853 5853 5852 5851 5849 5848 5847 5846 5845 5843 5842 5840 5839 5837 5835 5832 5830 5827 5825
5807 5811 5815 5818 5823 5827 5831 5835 5838 5841 5843 5846 5849 5850 5851 5851 5852 5853 5853 5854 5854 5853 5853 5853 5853 5852 5852 5851 5850 5849 5848 5847 5845 5844 5843 5841 5840 5838 5836 5834 5832 5829 5827 5824
5811 5815 5818 5821 5825 5828 5832 5835 5839 5841 5844 5846 5849 5849 5851 5851 5852 5852 5852 5853 5853 5853 5853 5853 5852 5852 5851 5850 5849 5848 5847 5846 5845 5843 5842 5841 5839 5837 5835 5833 5831 5829 5826 5824
5814 5818 5820 5823 5826 5828 5832 5834 5837 5840 5843 5846 5848 5848 5850 5850 5851 5851 5852 5852 5852 5852 5852 5852 5851 5851 5850 5850 5849 5848 5847 5846 5844 5843 5841 5840 5838 5836 5835 5833 5830 5828 5826 5823
5815 5819 5822 5824 5827 5830 5832 5833 5836 5840 5843 5845 5847 5847 5849 5850 5850 5850 5851 5851 5851 5851 5851 5851 5850 5850 5850 5849 5848 5847 5846 5845 5844 5842 5841 5839 5837 5836 5834 5832 5830 5828 5825 5823
5818 5821 5824 5826 5828 5830 5833 5835 5837 5840 5843 5846 5846 5848 5847 5848 5848 5849 5849 5850 5850 5850 5850 5850 5849 5849 5849 5848 5847 5847 5846 5844 5843 5841 5840 5838 5837 5835 5833 5831 5829 5827 5825 5822
5819 5822 5824 5827 5829 5830 5832 5834 5837 5840 5842 5844 5844 5848 5845 5846 5847 5847 5848 5848 5848 5849 5849 5849 5848 5848 5847 5847 5846 5845 5845 5843 5842 5841 5839 5837 5836 5834 5832 5830 5828 5826 5824 5821
5819 5822 5825 5827 5831 5832 5832 5834 5836 5838 5840 5842 5843 5846 5844 5844 5845 5846 5846 5847 5847 5847 5847 5847 5847 5847 5846 5846 5845 5844 5843 5842 5841 5839 5838 5836 5834 5833 5831 5829 5827 5824 5822 5820
5820 5822 5825 5827 5827 5829 5831 5833 5835 5837 5839 5841 5841 5841 5842 5843 5844 5845 5845 5845 5846 5846 5846 5846 5846 5845 5845 5844 5843 5843 5841 5840 5839 5837 5836 5834 5832 5831 5829 5827 5824 5822 5820 5818
5820 5822 5823 5824 5826 5828 5830 5832 5834 5835 5837 5838 5838 5838 5840 5841 5842 5843 5843 5844 5844 5844 5844 5844 5844 5843 5843 5842 5841 5841 5839 5838 5837 5835 5833 5832 5830 5828 5826 5824 5822 5820 5817 5815
5819 5821 5822 5824 5825 5827 5828 5830 5832 5833 5834 5835 5836 5837 5838 5839 5840 5840 5841 5841 5842 5842 5842 5842 5841 5841 5841 5840 5839 5838 5837 5835 5834 5832 5830 5829 5827 5824 5822 5820 5818 5816 5814 5811
5817 5820 5821 5822 5823 5825 5827 5828 5829 5831 5832 5833 5834 5836 5836 5837 5838 5838 5839 5839 5839 5840 5840 5839 5839 5838 5838 5837 5836 5835 5834 5832 5830 5829 5827 5825 5823 5821 5818 5816 5814 5811 5809 5807
5815 5817 5819 5820 5822 5823 5827 5826 5827 5828 5830 5831 5832 5833 5834 5834 5835 5835 5836 5836 5836 5837 5836 5836 5835 5835 5834 5833 5832 5831 5830 5828 5826 5824 5822 5820 5818 5816 5813 5811 5808 5806 5803 5801
5813 5814 5816 5818 5819 5820 5822 5824 5824 5826 5827 5828 5829 5830 5831 5831 5832 5832 5833 5833 5833 5833 5833 5832 5831 5831 5830 5829 5827 5826 5825 5823 5821 5819 5817 5815 5812 5810 5807 5805 5802 5799 5796 5793
5809 5811 5814 5815 5816 5817 5820 5821 5821 5824 5824 5826 5826 5827 5827 5828 5828 5830 5829 5829 5829 5829 5828 5827 5827 5826 5825 5823 5822 5820 5819 5817 5815 5813 5810 5808 5805 5803 5800 5797 5793 5790 5787 5784
5806 5807 5809 5811 5811 5813 5815 5817 5818 5820 5822 5822 5822 5823 5823 5824 5825 5825 5824 5824 5824 5824 5823 5822 5821 5820 5819 5817 5816 5814 5812 5810 5808 5805 5803 5800 5797 5794 5791 5788 5784 5781 5777 5774
5801 5803 5805 5806 5807 5810 5811 5812 5814 5815 5816 5816 5817 5818 5818 5819 5819 5819 5819 5818 5818 5818 5817 5816 5815 5813 5812 5810 5809 5807 5805 5803 5800 5797 5795 5792 5788 5785 5781 5778 5774 5769 5766 5762
5796 5799 5799 5802 5804 5805 5806 5807 5808 5809 5810 5811 5811 5812 5812 5813 5813 5813 5813 5812 5811 5811 5810 5809 5807 5806 5805 5803 5801 5799 5796 5794 5791 5788 5785 5782 5778 5775 5771 5766 5762 5757 5753 5749
5789 5792 5794 5795 5796 5798 5799 5800 5801 5802 5803 5804 5805 5805 5806 5806 5806 5806 5805 5805 5804 5803 5802 5800 5799 5797 5796 5794 5792 5789 5787 5784 5781 5778 5775 5771 5767 5763 5759 5754 5749 5744 5739 5735
5782 5785 5786 5788 5789 5790 5791 5793 5794 5795 5796 5797 5797 5797 5798 5798 5798 5797 5797 5796 5795 5794 5793 5791 5790 5788 5786 5784 5782 5779 5776 5773 5770 5767 5763 5759 5755 5751 5746 5741 5736 5731 5726 5720
5774 5776 5778 5779 5780 5782 5783 5785 5786 5787 5788 5788 5788 5789 5788 5788 5788 5788 5787 5787 5785 5784 5783 5781 5779 5777 5775 5773 5770 5767 5764 5761 5758 5754 5751 5747 5742 5738 5733 5728 5723 5717 5711 5706